Regional Weather Roundup
Issued by NWS

Home | Current Version | Previous Version | Graphics & Text | Print | Product List | Glossary On
Versions: 1 2 3 4 5 6 7 8 9 10 11 12 13 14 15 16 17 18 19 20 21 22 23 24 25 26 27 28 29 30 31 32 33 34 35 36 37 38 39 40 41 42 43 44 45 46 47 48 49 50
000
ASUS43 KFSD 030810
RWRSD

WEATHER ROUNDUP FOR SOUTH DAKOTA
NATIONAL WEATHER SERVICE SIOUX FALLS SD
300 AM CDT THU SEP 03 2015

NOTE: "FAIR" INDICATES FEW OR NO CLOUDS BELOW 12,000 FEET WITH NO
SIGNIFICANT WEATHER AND/OR OBSTRUCTIONS TO VISIBILITY.


SDZ001>005-009-010-012>017-030900-
NORTHWEST AND NORTH CENTRAL SOUTH DAKOTA

CITY           SKY/WX    TMP DP  RH WIND       PRES   REMARKS
BUFFALO          N/A     69  55  60 S8        29.66F
MOBRIDGE       CLEAR     71  69  93 SE7       29.68F
$$

SDZ012>016-024>037-041>051-057-063-072>074-030900-
SOUTHWEST AND SOUTH CENTRAL SOUTH DAKOTA

CITY           SKY/WX    TMP DP  RH WIND       PRES   REMARKS
RAPID CTY ARPT CLEAR     65  46  50 SE3       29.79S
PIERRE         CLEAR     72  59  63 SE8       29.71S
CUSTER         CLEAR     64  36  35 CALM      29.99F
ELLSWORTH AFB  CLEAR     70  46  42 S6        29.78S
PHILIP         CLEAR     70  52  52 VRB5      29.74F
PINE RIDGE     CLEAR     76  51  41 S15G22    29.84S
WINNER           N/A     77  60  55 S14       29.77S
$$

SDZ004>011-016>023-039-040-030900-
NORTHEAST SOUTH DAKOTA

CITY           SKY/WX    TMP DP  RH WIND       PRES   REMARKS
ABERDEEN       CLEAR     73  70  90 SE9       29.74F
WATERTOWN      CLEAR     72  69  90 SE12      29.81F
BROOKINGS      CLEAR     70  66  88 SE8       29.85S
SISSETON         N/A     72  72 100 S10       29.80F
$$

SDZ017-020-022-023-036>040-048>070-030900-
SOUTHEAST SOUTH DAKOTA

CITY           SKY/WX    TMP DP  RH WIND       PRES   REMARKS
SIOUX FALLS    CLEAR     71  69  93 SE5       29.83S
HURON          CLEAR     72  70  93 SE10      29.75F
CHAMBERLAIN    CLEAR     69  65  88 SE6       29.76S
MITCHELL       CLEAR     71  70  96 SE8       29.78S
YANKTON        CLEAR     66  64  94 E6        29.79F
$$

ABBREVIATIONS USED IN REMARKS
   TC - TEMPERATURE IN CELSIUS
  WCI - WIND CHILL INDEX
   HX - HEAT INDEX
  VSB - VISIBILITY



USA.gov is the U.S. government's official web portal to all federal, state and local government web resources and services.